Temperature
7 7 7 7 6 6 6 6 6 6 6 6 5 5 5 5 5 5 5 5 4 4 4 4 4 4 4 4 3 3 3 2 2 2 2 2 2 3 3 3 3 3 3
7 6 6 6 6 6 6 6 6 6 5 5 5 5 5 5 5 5 4 4 4 4 3 3 3 3 3 3 3 2 2 2 1 2 2 2 2 2 2 2 2 2 2
6 6 6 6 6 6 6 6 5 5 5 5 5 5 4 4 4 4 4 4 3 3 3 3 3 2 2 2 2 2 2 1 1 1 1 1 1 1 1 1 1 1 1
6 6 6 6 6 5 5 5 5 5 5 4 4 4 4 4 4 4 3 3 3 3 2 2 2 2 2 1 1 1 1 0 0 -0 -0 -0 -0 -0 -0 -0 0 0 1
6 6 6 5 5 5 5 5 5 4 4 4 4 4 4 3 3 3 3 3 2 2 2 2 1 1 1 0 0 0 -0 -1 -1 -1 -1 -1 -1 -1 -2 -2 -2 -1 -0
5 5 5 5 5 5 5 4 4 4 4 4 3 3 3 3 3 2 2 2 2 2 1 1 1 0 0 -0 -0 -1 -1 -2 -2 -2 -2 -2 -2 -3 -3 -3 -3 -3 -2
5 5 5 5 5 5 4 4 4 4 4 3 3 3 3 3 2 2 2 1 1 1 1 0 0 -0 -1 -1 -1 -1 -2 -2 -3 -3 -3 -3 -3 -4 -4 -4 -4 -4 -4
5 5 5 5 5 4 4 4 4 3 3 3 3 2 2 2 2 2 1 1 1 1 0 -0 -1 -1 -1 -2 -2 -2 -2 -2 -3 -3 -4 -4 -4 -4 -5 -5 -5 -4 -4
5 5 5 4 4 4 4 4 3 3 3 3 2 2 2 2 1 1 1 1 0 0 -0 -1 -1 -1 -2 -2 -3 -3 -3 -3 -3 -4 -4 -4 -4 -5 -5 -5 -5 -5 -5
4 4 4 4 4 4 3 3 3 3 3 2 2 2 2 1 1 1 0 -0 -0 -1 -1 -1 -2 -2 -2 -3 -3 -3 -3 -3 -4 -4 -4 -4 -5 -5 -5 -6 -6 -6 -6
4 4 4 4 4 3 3 3 2 2 2 2 2 2 1 1 1 0 -0 -1 -1 -1 -1 -2 -2 -2 -3 -3 -4 -4 -4 -4 -5 -5 -5 -5 -5 -5 -6 -6 -6 -7 -7
4 4 4 3 3 3 3 2 2 2 2 2 1 1 1 1 0 -0 -1 -1 -1 -2 -2 -2 -3 -3 -3 -4 -4 -4 -5 -5 -5 -5 -5 -5 -5 -6 -6 -6 -6 -7 -7
3 3 3 3 3 2 2 2 2 1 1 1 1 1 1 0 -0 -1 -1 -2 -2 -2 -2 -3 -3 -4 -4 -4 -4 -4 -5 -5 -5 -6 -6 -6 -6 -6 -6 -6 -6 -7 -7
3 3 3 3 2 2 2 1 1 1 1 1 1 0 0 -0 -0 -1 -1 -2 -2 -3 -3 -3 -4 -4 -4 -4 -5 -5 -5 -5 -6 -6 -6 -6 -6 -6 -6 -7 -7 -7 -7
2 2 2 2 2 2 1 1 1 1 1 0 0 -0 -1 -1 -1 -1 -2 -2 -3 -3 -4 -4 -4 -5 -5 -5 -5 -5 -6 -6 -6 -6 -7 -7 -7 -7 -7 -7 -7 -8 -8
2 2 2 2 1 1 1 1 1 0 -0 -0 -1 -1 -1 -1 -2 -2 -2 -3 -3 -4 -4 -5 -5 -5 -5 -5 -6 -6 -6 -6 -7 -7 -7 -7 -7 -7 -7 -8 -8 -8 -8
1 1 1 1 1 1 0 0 0 -0 -0 -1 -1 -1 -1 -1 -2 -2 -3 -3 -4 -4 -5 -5 -5 -5 -6 -6 -6 -6 -6 -7 -7 -7 -7 -7 -8 -8 -8 -8 -8 -8 -9
1 1 1 1 1 0 -0 -0 -1 -1 -1 -1 -1 -1 -2 -2 -2 -3 -3 -4 -4 -5 -5 -5 -5 -5 -6 -6 -6 -7 -7 -7 -7 -7 -8 -8 -8 -8 -8 -9 -9 -9 -9
1 1 1 1 0 -0 -1 -1 -1 -1 -1 -1 -2 -2 -2 -3 -3 -3 -4 -4 -4 -4 -5 -5 -5 -6 -6 -6 -7 -7 -7 -7 -7 -8 -8 -8 -8 -9 -9 -9 -9 -9 -9
1 1 0 -0 -0 -1 -1 -1 -2 -2 -2 -2 -2 -2 -3 -3 -3 -4 -4 -4 -5 -5 -5 -5 -6 -6 -6 -7 -7 -7 -7 -7 -8 -8 -8 -8 -9 -9 -9 -9 -9 -9 -9
0 0 -0 -1 -1 -1 -1 -2 -2 -2 -2 -2 -3 -3 -3 -4 -4 -4 -4 -5 -5 -5 -6 -6 -6 -6 -7 -7 -7 -7 -8 -8 -8 -8 -9 -9 -9 -9 -9 -9 -9 -9 -10
-0 -1 -1 -1 -1 -2 -2 -2 -2 -2 -2 -3 -3 -3 -4 -4 -4 -4 -5 -5 -5 -6 -6 -6 -7 -7 -7 -7 -7 -8 -8 -8 -8 -9 -9 -9 -9 -9 -9 -9 -9 -9 -10
-1 -1 -1 -1 -2 -2 -2 -2 -2 -3 -3 -3 -3 -4 -4 -4 -4 -5 -5 -5 -6 -6 -6 -7 -7 -7 -7 -7 -8 -8 -8 -8 -9 -9 -9 -9 -9 -9 -10 -10 -10 -10 -10
-1 -1 -2 -2 -2 -2 -2 -2 -3 -3 -3 -4 -4 -4 -4 -5 -5 -5 -5 -6 -6 -7 -7 -7 -7 -7 -7 -8 -8 -8 -8 -8 -9 -9 -9 -9 -10 -10 -10 -10 -10 -10 -10
-2 -2 -2 -2 -2 -2 -3 -3 -3 -3 -4 -4 -4 -4 -5 -5 -5 -6 -6 -6 -6 -7 -7 -7 -7 -8 -8 -8 -8 -8 -8 -9 -9 -9 -9 -10 -10 -10 -10 -10 -10 -10 -10
-2 -2 -2 -2 -2 -3 -3 -3 -3 -4 -4 -4 -5 -5 -5 -5 -6 -6 -6 -7 -7 -7 -7 -7 -8 -8 -8 -8 -8 -8 -9 -9 -9 -9 -10 -10 -10 -10 -10 -10 -10 -10 -10
Wind_Speed
4 4 3 3 3 3 3 3 2 2 1 1 0 1 1 2 2 2 2 2 3 3 3 3 3 3 3 3 3 3 2 2 3 3 3 4 5 6 7 10 11 11 11
4 4 4 4 3 4 3 3 3 2 2 2 1 1 1 1 1 1 1 2 2 2 2 3 3 3 3 3 2 3 2 2 1 4 3 4 4 5 6 6 8 10 11
4 4 4 4 4 4 4 4 3 3 3 2 2 2 1 1 1 1 0 0 1 1 1 2 2 3 3 2 3 3 2 3 2 2 4 3 3 5 6 6 6 6 10
4 4 5 5 5 5 4 4 4 4 4 3 3 3 2 2 1 1 1 1 1 1 0 1 1 1 2 3 3 3 3 3 2 3 3 4 4 4 4 6 7 5 7
4 5 6 5 5 4 4 4 4 4 4 4 3 3 3 2 2 2 1 2 1 1 1 1 1 0 1 2 2 2 3 2 3 3 3 4 4 5 5 5 7 7 6
4 5 5 4 4 4 5 5 4 5 4 4 4 4 4 3 4 5 3 2 2 2 2 2 2 2 3 4 5 4 4 3 3 3 3 4 5 5 4 5 6 7 5
5 5 5 5 5 5 5 5 5 5 5 5 5 5 5 5 6 6 6 3 3 3 3 3 3 2 3 2 4 5 5 6 6 4 4 5 5 5 5 5 5 6 7
5 5 5 5 6 5 5 6 5 5 5 5 5 5 5 6 8 8 7 4 4 4 4 4 3 3 3 3 3 3 4 4 5 4 4 5 5 4 4 5 7 7 6
6 6 6 6 6 6 6 6 5 5 5 5 5 5 5 6 8 9 8 3 4 5 5 4 4 4 6 7 4 4 4 4 6 8 8 9 10 10 8 4 4 6 7
6 6 5 5 6 7 7 6 5 5 5 5 5 5 6 6 8 9 8 4 4 4 4 5 7 6 7 7 4 4 5 5 4 5 6 8 7 8 9 4 3 4 5
5 5 5 6 6 6 6 5 5 5 5 5 5 5 6 7 9 10 10 5 5 5 4 4 4 7 8 8 7 4 7 6 4 4 4 4 4 3 3 3 3 3 5
4 5 5 5 6 5 6 5 5 5 5 5 5 5 5 6 8 9 11 11 8 5 5 4 4 7 8 9 7 8 9 8 4 4 4 4 4 3 3 4 5 6 8
5 6 5 5 5 5 6 6 5 6 5 5 5 6 5 5 6 11 12 12 11 7 5 7 7 8 8 7 9 10 7 4 4 4 5 4 4 4 4 4 5 7 9
6 6 5 5 5 5 5 5 5 6 6 6 6 6 5 4 5 5 5 6 8 7 6 7 9 10 8 8 7 6 4 4 4 4 4 4 3 3 4 4 5 5 6
6 6 5 5 5 5 5 6 7 7 8 8 7 6 6 6 8 9 6 5 4 5 4 3 4 4 4 4 4 4 4 3 4 4 4 5 5 5 5 5 5 5 7
6 5 5 4 5 4 4 5 8 8 10 11 10 8 7 9 9 10 11 11 11 10 6 4 5 5 5 5 5 4 4 4 4 4 4 5 5 6 6 6 6 6 8
6 6 5 5 5 5 5 5 5 6 8 10 11 11 10 10 10 10 10 10 11 10 6 5 6 6 5 5 5 4 4 4 4 4 5 5 5 5 6 7 7 7 8
6 7 6 5 5 5 6 6 5 5 5 5 8 11 12 11 11 10 10 8 6 7 6 6 6 5 5 5 5 4 4 4 4 4 5 5 5 6 6 7 7 8 9
6 5 5 5 5 5 5 5 6 6 6 5 4 6 10 10 10 10 9 6 6 6 6 6 6 5 5 5 5 5 5 5 5 5 5 5 6 6 7 7 8 12 11
6 8 7 5 5 5 5 6 6 6 6 5 5 5 4 5 5 6 6 6 6 6 6 6 6 5 5 5 5 5 5 5 5 5 6 6 6 6 7 9 8 9 9
5 6 7 6 5 6 6 6 6 6 6 6 6 6 8 6 6 6 6 6 6 7 6 6 5 5 5 5 4 5 6 6 6 6 6 6 6 7 7 8 9 9 9
5 5 5 5 5 5 6 6 6 6 7 7 5 6 10 6 5 5 6 6 6 5 5 5 5 5 5 5 5 5 6 6 6 6 6 6 7 7 8 8 9 9 9
5 5 5 5 5 8 7 5 6 6 6 6 5 5 5 6 6 6 6 5 5 5 4 5 5 5 5 5 6 6 6 7 6 6 7 7 7 8 8 9 10 10 10
5 6 6 6 5 5 6 6 6 6 6 6 6 6 6 6 6 6 5 4 4 4 4 5 5 6 7 6 7 8 8 9 9 8 8 8 9 8 8 9 10 11 11
5 6 6 6 6 6 6 6 6 6 6 6 6 6 5 5 5 5 4 4 5 5 5 5 5 6 7 8 8 9 11 13 12 10 8 8 9 9 9 10 10 10 10
6 6 6 6 6 6 6 6 6 6 6 6 5 5 5 5 5 5 4 4 5 5 5 5 6 7 8 8 10 11 13 14 14 13 10 7 8 8 9 9 10 10 11
Wind_Direction
205 203 210 207 201 198 196 202 201 198 193 213 267 326 346 353 350 11 14 15 23 14 12 20 12 9 7 8 10 5 359 344 287 301 333 342 349 349 348 347 342 340 341
202 202 207 207 203 201 204 203 196 201 200 197 205 240 287 329 346 9 6 10 22 17 7 8 358 5 9 2 5 1 357 351 307 298 315 335 341 341 341 340 343 342 336
200 202 209 210 207 210 209 202 196 198 201 198 196 212 227 240 271 290 282 331 357 3 5 3 352 0 358 351 356 352 343 341 330 305 308 321 326 334 335 334 337 335 336
205 209 215 217 212 211 207 199 197 196 199 205 206 208 210 215 226 244 245 255 272 284 321 330 346 8 356 343 343 340 339 336 331 322 314 320 319 323 340 338 335 336 331
212 220 224 218 209 205 203 201 200 200 204 204 207 214 209 209 221 218 236 246 256 263 252 240 233 236 301 308 319 327 335 326 321 319 316 320 325 338 340 334 327 325 318
223 228 226 213 207 207 207 203 202 205 206 203 210 214 214 219 222 227 233 244 249 261 267 263 251 257 273 295 302 305 303 299 299 299 301 305 311 318 321 325 325 329 320
232 232 224 214 212 212 209 207 209 210 207 208 212 212 215 217 227 235 240 241 241 250 255 260 267 264 281 272 290 297 297 295 289 281 283 287 297 309 316 316 315 307 295
239 236 228 220 218 213 209 214 215 210 210 212 215 215 217 221 227 235 240 240 236 243 244 242 247 250 261 269 270 281 280 279 281 280 268 273 283 287 287 293 294 297 287
245 239 232 223 221 214 215 218 216 212 215 216 214 213 219 229 231 236 237 233 237 244 241 236 240 243 265 275 274 270 278 280 286 284 284 286 293 300 304 303 307 311 307
247 245 236 223 220 219 220 218 213 210 216 213 217 215 218 227 234 236 234 227 238 245 245 237 243 250 263 271 267 268 277 282 291 297 295 294 294 296 301 295 288 298 300
248 243 235 224 221 220 218 214 211 210 211 213 221 225 222 227 237 236 233 224 231 241 244 241 238 255 264 268 268 260 272 284 284 284 286 285 286 283 290 290 277 266 276
249 244 237 229 225 218 212 215 209 202 210 220 226 235 232 229 231 236 236 236 238 239 243 240 240 258 266 269 270 271 280 289 281 277 279 279 279 279 275 275 277 272 266
251 247 241 234 226 217 213 214 212 206 212 222 223 233 238 223 226 235 239 242 245 242 244 250 256 262 268 269 269 271 276 271 264 268 273 273 267 267 273 279 280 280 279
251 250 241 233 232 224 217 211 212 214 217 222 225 232 236 229 221 220 225 239 245 249 253 256 259 261 262 261 266 265 254 249 256 258 269 273 277 279 281 284 290 297 293
252 249 243 233 230 229 224 220 221 221 218 221 226 224 226 236 230 221 220 223 222 231 238 242 238 243 243 245 247 246 243 250 260 257 268 279 285 287 288 289 287 290 285
254 249 242 235 230 227 231 248 238 232 237 235 232 230 235 237 238 233 233 237 240 241 243 239 240 241 242 244 247 247 243 246 250 259 267 274 281 285 289 290 287 286 286
249 248 244 235 229 226 224 230 251 252 244 243 240 239 239 239 238 237 236 238 240 241 240 236 240 241 241 238 238 242 247 249 251 257 264 268 274 279 283 286 287 286 285
250 247 243 236 229 227 226 227 230 238 251 257 247 244 244 242 239 237 236 236 240 237 232 236 239 241 238 235 237 244 251 254 257 260 262 265 268 274 279 280 281 281 284
252 247 240 234 229 230 231 232 233 235 240 246 247 245 239 238 237 237 233 228 231 234 234 237 238 237 236 233 235 241 248 254 256 256 259 262 264 267 273 275 277 281 284
250 246 242 236 230 232 233 234 236 236 238 236 236 236 219 213 223 227 224 225 231 236 236 236 237 234 232 231 235 240 248 253 254 255 259 261 263 265 270 274 277 280 281
249 247 242 241 235 233 233 235 235 234 237 239 239 231 221 218 224 224 223 225 229 233 234 235 235 231 230 231 231 237 244 251 252 254 259 262 264 267 270 273 276 278 280
244 245 239 238 240 238 241 237 234 235 236 240 244 239 233 227 222 225 228 231 229 227 226 228 233 229 225 225 230 239 245 249 250 252 256 261 264 267 270 273 276 278 279
242 244 246 244 242 245 249 242 237 237 238 238 235 229 227 223 223 226 229 229 227 226 225 223 228 234 235 235 233 232 241 247 249 250 255 262 265 268 270 272 275 279 279
241 242 244 245 242 241 242 242 240 238 237 238 234 227 225 225 227 229 227 225 225 227 225 224 230 233 235 242 244 243 244 249 252 253 251 256 263 268 269 272 274 275 277
240 243 245 244 242 241 240 242 240 237 239 239 233 230 227 224 225 225 222 223 226 228 230 231 236 237 238 241 247 250 254 258 262 263 258 259 261 264 269 272 273 276 277
246 245 246 244 241 239 239 241 241 238 239 238 232 226 223 222 223 222 222 223 226 228 231 235 237 241 245 250 252 256 262 267 270 272 271 267 264 266 269 272 273 275 277
Height
1495 1495 1494 1494 1494 1493 1493 1493 1492 1491 1491 1490 1490 1489 1488 1487 1486 1485 1484 1483 1482 1481 1480 1479 1478 1477 1476 1475 1474 1473 1472 1471 1469 1467 1466 1464 1462 1460 1458 1457 1455 1453 1451
1492 1491 1490 1490 1490 1490 1489 1489 1489 1488 1488 1487 1487 1486 1485 1484 1483 1482 1481 1480 1479 1478 1477 1476 1475 1474 1473 1472 1471 1469 1468 1467 1466 1463 1462 1460 1459 1457 1455 1453 1451 1449 1447
1488 1487 1487 1486 1486 1486 1486 1486 1485 1485 1484 1484 1483 1483 1482 1481 1480 1479 1478 1477 1476 1475 1474 1473 1472 1471 1470 1469 1468 1466 1465 1464 1462 1461 1458 1457 1455 1453 1451 1449 1448 1446 1444
1484 1484 1483 1482 1482 1482 1482 1481 1481 1481 1480 1480 1479 1479 1478 1477 1477 1476 1475 1474 1473 1472 1471 1470 1469 1468 1467 1466 1465 1463 1462 1461 1459 1457 1455 1453 1451 1450 1448 1445 1443 1442 1440
1480 1480 1479 1479 1478 1478 1477 1477 1477 1477 1476 1476 1475 1475 1474 1474 1473 1472 1472 1470 1470 1469 1468 1467 1466 1465 1464 1463 1461 1460 1459 1457 1456 1454 1452 1450 1448 1446 1444 1442 1440 1437 1435
1477 1476 1475 1474 1474 1473 1473 1473 1473 1472 1472 1472 1471 1471 1470 1470 1469 1469 1468 1467 1466 1465 1464 1463 1462 1461 1460 1459 1458 1457 1456 1454 1452 1451 1449 1447 1445 1444 1442 1440 1437 1434 1430
1473 1472 1471 1470 1469 1469 1468 1468 1468 1468 1467 1467 1467 1467 1466 1466 1466 1465 1464 1463 1462 1461 1460 1459 1458 1458 1457 1455 1454 1453 1452 1451 1450 1448 1446 1444 1443 1441 1439 1437 1435 1432 1429
1469 1468 1467 1466 1465 1464 1464 1463 1463 1463 1463 1462 1462 1462 1462 1462 1461 1461 1460 1459 1458 1457 1456 1455 1454 1453 1452 1451 1450 1449 1448 1447 1446 1444 1443 1441 1440 1438 1437 1435 1432 1429 1426
1465 1463 1463 1461 1460 1460 1459 1458 1458 1458 1458 1458 1458 1457 1457 1457 1457 1456 1455 1454 1453 1452 1451 1451 1450 1449 1448 1447 1446 1445 1444 1443 1442 1440 1439 1438 1436 1435 1433 1431 1428 1426 1422
1460 1459 1458 1457 1456 1455 1454 1454 1454 1453 1453 1453 1453 1453 1452 1452 1452 1451 1450 1449 1448 1447 1446 1446 1445 1444 1444 1443 1442 1440 1439 1438 1437 1436 1435 1433 1432 1430 1429 1427 1425 1422 1419
1456 1455 1453 1452 1451 1450 1450 1449 1449 1449 1448 1448 1448 1447 1447 1447 1446 1446 1445 1444 1443 1442 1441 1441 1440 1440 1439 1438 1437 1436 1435 1434 1432 1431 1430 1428 1427 1426 1424 1423 1421 1419 1416
1451 1450 1448 1447 1446 1445 1444 1444 1443 1443 1443 1442 1442 1442 1441 1441 1441 1440 1440 1439 1438 1437 1436 1436 1435 1435 1434 1433 1433 1431 1430 1429 1428 1426 1425 1423 1422 1421 1419 1418 1416 1414 1412
1446 1444 1443 1442 1441 1440 1439 1438 1438 1437 1437 1437 1436 1436 1436 1436 1435 1435 1434 1434 1433 1432 1431 1431 1430 1429 1429 1428 1427 1426 1426 1424 1423 1422 1420 1419 1418 1416 1414 1412 1410 1408 1406
1440 1439 1438 1436 1435 1435 1434 1433 1433 1432 1432 1431 1431 1430 1430 1430 1429 1429 1428 1428 1427 1426 1426 1425 1425 1424 1424 1423 1422 1421 1421 1420 1418 1417 1415 1414 1413 1411 1409 1407 1405 1402 1400
1435 1434 1432 1431 1430 1429 1428 1428 1427 1427 1427 1426 1425 1425 1424 1423 1424 1424 1423 1422 1421 1421 1420 1420 1419 1419 1418 1417 1417 1416 1415 1415 1413 1412 1411 1409 1407 1405 1404 1402 1400 1397 1394
1430 1428 1427 1425 1424 1423 1422 1422 1421 1421 1421 1421 1420 1420 1419 1419 1418 1417 1417 1416 1416 1416 1415 1414 1413 1413 1412 1412 1411 1411 1410 1409 1408 1407 1406 1404 1402 1400 1398 1397 1394 1392 1389
1424 1423 1421 1420 1418 1417 1416 1415 1414 1415 1415 1414 1414 1414 1413 1412 1412 1411 1411 1410 1410 1410 1409 1408 1408 1407 1407 1407 1406 1406 1405 1404 1403 1402 1400 1399 1397 1395 1393 1391 1389 1387 1384
1418 1417 1415 1414 1413 1412 1410 1410 1409 1408 1408 1407 1408 1408 1407 1407 1406 1406 1405 1405 1404 1404 1403 1403 1402 1402 1402 1401 1401 1400 1400 1399 1398 1396 1395 1394 1392 1390 1388 1386 1384 1381 1378
1412 1411 1409 1408 1407 1406 1405 1404 1403 1402 1402 1401 1401 1401 1401 1401 1400 1400 1400 1399 1398 1398 1398 1397 1397 1397 1396 1396 1395 1395 1394 1393 1392 1391 1390 1388 1387 1385 1383 1381 1378 1376 1373
1406 1405 1403 1402 1401 1400 1399 1398 1397 1396 1396 1395 1395 1395 1395 1395 1394 1394 1394 1393 1393 1393 1392 1392 1392 1391 1391 1391 1390 1389 1389 1388 1387 1385 1384 1383 1381 1380 1378 1375 1373 1370 1368
1400 1399 1398 1396 1395 1394 1393 1392 1392 1391 1390 1389 1389 1389 1389 1389 1388 1388 1388 1387 1387 1387 1387 1387 1386 1386 1386 1385 1384 1384 1383 1382 1381 1380 1378 1377 1376 1374 1372 1370 1367 1365 1362
1395 1393 1392 1390 1389 1388 1387 1387 1386 1385 1384 1384 1383 1383 1383 1383 1382 1382 1382 1382 1382 1382 1381 1381 1381 1381 1380 1380 1379 1378 1377 1376 1375 1374 1373 1371 1370 1368 1366 1364 1362 1359 1356
1389 1387 1386 1385 1384 1383 1382 1381 1380 1379 1378 1378 1378 1378 1377 1377 1377 1376 1376 1376 1376 1376 1376 1376 1375 1375 1375 1374 1374 1373 1372 1371 1370 1369 1367 1365 1364 1362 1360 1358 1356 1353 1351
1383 1382 1380 1379 1378 1377 1376 1375 1374 1373 1373 1372 1372 1372 1372 1371 1371 1371 1371 1371 1370 1370 1370 1370 1370 1369 1369 1369 1368 1367 1366 1365 1364 1363 1362 1360 1358 1356 1355 1352 1350 1348 1345
1377 1376 1375 1374 1372 1371 1370 1369 1368 1368 1367 1366 1366 1366 1366 1366 1366 1366 1365 1365 1365 1365 1365 1365 1364 1364 1364 1363 1362 1362 1361 1360 1359 1357 1356 1354 1353 1351 1349 1347 1344 1342 1340
1371 1370 1369 1368 1367 1365 1364 1363 1362 1362 1361 1361 1361 1360 1360 1360 1360 1360 1360 1360 1360 1360 1359 1359 1359 1359 1358 1358 1357 1356 1355 1354 1353 1352 1350 1349 1347 1345 1343 1341 1339 1336 1334